DW8453 Weather Reports


Display with metric or nautical units.
time (UTC)temp
F
wind
direction
speed
MPH
gust
MPH
rain 1hr
in
rain 24hr
in
rain mn
in
humidity
%
barometer
mb
20181212011259 33 138 6.0 6.0 0.00 0.00 0.00 76 1025.2
20181212010800 33 138 6.0 9.0 0.00 0.00 0.00 76 1025.2
20181212010259 33 136 8.0 9.0 0.00 0.00 0.00 76 1025.2
20181212005759 33 135 9.0 9.0 0.00 0.00 0.00 76 1025.2
20181212005259 34 135 9.0 7.0 0.00 0.00 0.00 76 1025.1
20181212004800 34 144 7.0 8.0 0.00 0.00 0.00 76 1025.0
20181212004300 34 146 7.0 7.0 0.00 0.00 0.00 76 1025.0
20181212003759 34 135 7.0 7.0 0.00 0.00 0.00 76 1025.0
20181212003259 34 112 7.0 9.0 0.00 0.00 0.00 76 1025.1
20181212002759 34 135 10.0 8.0 0.00 0.00 0.00 76 1024.8
20181212002259 34 118 10.0 8.0 0.00 0.00 0.00 76 1024.8
20181212001759 34 135 8.0 7.0 0.00 0.00 0.00 76 1024.8
20181212001259 34 135 8.0 8.0 0.00 0.00 0.00 76 1024.7
20181212000759 34 112 7.0 7.0 0.00 0.00 0.00 77 1024.7
20181212000259 34 135 9.0 9.0 0.00 0.00 0.00 77 1024.7
20181211235759 34 135 10.0 9.0 0.00 0.00 0.00 77 1024.6
20181211235259 34 121 10.0 8.0 0.00 0.00 0.00 77 1024.7
20181211234759 34 121 7.0 8.0 0.00 0.00 0.00 77 1024.8
20181211234259 34 123 9.0 9.0 0.00 0.00 0.00 77 1024.8
20181211233759 34 135 9.0 7.0 0.00 0.00 0.00 77 1024.9
20181211233259 34 146 9.0 9.0 0.00 0.00 0.00 77 1024.8
20181211232759 35 127 10.0 8.0 0.00 0.00 0.00 77 1024.7
20181211232259 35 112 10.0 10.0 0.00 0.00 0.00 77 1024.8
20181211231759 35 107 7.0 9.0 0.00 0.00 0.00 77 1024.8
20181211231259 35 135 9.0 9.0 0.00 0.00 0.00 77 1024.8
20181211230829 35 133 8.0 9.0 0.00 0.00 0.00 77 1024.8
20181211230259 35 133 12.0 10.0 0.00 0.00 0.00 77 1024.6
20181211225800 35 127 10.0 9.0 0.00 0.00 0.00 77 1024.6
20181211225258 35 121 10.0 9.0 0.00 0.00 0.00 77 1024.5
20181211224758 35 135 14.0 14.0 0.00 0.00 0.00 77 1024.4
20181211224259 35 112 12.0 10.0 0.00 0.00 0.00 77 1024.5
20181211223759 35 135 8.0 10.0 0.00 0.00 0.00 77 1024.4
20181211223259 35 135 13.0 12.0 0.00 0.00 0.00 77 1024.4
20181211222758 35 128 9.0 8.0 0.00 0.00 0.00 77 1024.3
20181211222259 35 130 7.0 10.0 0.00 0.00 0.00 77 1024.2
20181211221759 35 135 8.0 10.0 0.00 0.00 0.00 77 1024.2
20181211221259 35 135 9.0 10.0 0.00 0.00 0.00 77 1024.1
20181211220758 35 133 9.0 10.0 0.00 0.00 0.00 78 1024.0
20181211220259 35 133 8.0 8.0 0.00 0.00 0.00 78 1024.0
20181211215759 35 141 9.0 10.0 0.00 0.00 0.00 78 1024.0
20181211215300 35 135 9.0 10.0 0.00 0.00 0.00 78 1024.0
20181211214759 35 149 10.0 9.0 0.00 0.00 0.00 78 1024.0
20181211214259 35 135 10.0 8.0 0.00 0.00 0.00 78 1024.0
20181211213759 35 123 11.0 12.0 0.00 0.00 0.00 78 1024.0
20181211213259 35 135 10.0 9.0 0.00 0.00 0.00 78 1023.9
20181211212759 35 112 9.0 9.0 0.00 0.00 0.00 78 1023.9
20181211212259 35 135 10.0 10.0 0.00 0.00 0.00 78 1023.8
20181211211759 35 135 13.0 10.0 0.00 0.00 0.00 78 1023.9
20181211211259 35 117 12.0 12.0 0.00 0.00 0.00 79 1023.9
20181211210759 35 135 17.0 16.0 0.00 0.00 0.00 79 1023.9
20181211210258 35 132 12.0 13.0 0.00 0.00 0.00 79 1023.9
20181211205759 35 128 13.0 14.0 0.00 0.00 0.00 79 1023.9
20181211205300 35 149 9.0 9.0 0.00 0.00 0.00 80 1023.9
20181211204800 35 125 12.0 9.0 0.00 0.00 0.00 80 1023.9
20181211204258 35 135 14.0 12.0 0.00 0.00 0.00 80 1023.8
20181211203759 35 135 12.0 12.0 0.00 0.00 0.00 80 1023.7
20181211203258 35 135 14.0 13.0 0.00 0.00 0.00 80 1023.7
20181211202758 35 127 10.0 13.0 0.00 0.00 0.00 80 1023.7
20181211202259 35 120 12.0 13.0 0.00 0.00 0.00 80 1023.6
20181211201759 34 130 11.0 10.0 0.00 0.00 0.00 80 1023.6
20181211201259 34 94 8.0 12.0 0.00 0.00 0.00 80 1023.7
20181211200759 34 112 10.0 9.0 0.00 0.00 0.00 81 1023.6
20181211200259 34 135 10.0 9.0 0.00 0.00 0.00 81 1023.7
20181211195759 34 135 11.0 9.0 0.00 0.00 0.00 81 1023.6
20181211195259 34 137 10.0 9.0 0.00 0.00 0.00 81 1023.6
20181211194759 34 135 10.0 9.0 0.00 0.00 0.00 81 1023.6
20181211194259 34 113 10.0 12.0 0.00 0.00 0.00 81 1023.6
20181211193758 34 135 9.0 9.0 0.00 0.00 0.00 82 1023.4
20181211193302 34 141 11.0 9.0 0.00 0.00 0.00 82 1023.4
20181211192800 34 116 10.0 12.0 0.00 0.00 0.00 82 1023.3
20181211192301 34 121 9.0 8.0 0.00 0.00 0.00 81 1023.3
20181211191759 34 135 10.0 10.0 0.00 0.00 0.00 81 1023.3
20181211191258 33 113 12.0 12.0 0.00 0.00 0.00 81 1023.2
20181211190759 33 139 12.0 12.0 0.00 0.00 0.00 81 1023.2
20181211190259 33 131 10.0 10.0 0.00 0.00 0.00 81 1023.1
20181211185759 33 126 7.0 8.0 0.00 0.00 0.00 81 1023.2
20181211185259 33 126 11.0 10.0 0.00 0.00 0.00 82 1023.1
20181211184759 33 131 10.0 10.0 0.00 0.00 0.00 82 1023.1
20181211184259 33 132 9.0 12.0 0.00 0.00 0.00 82 1023.0
20181211183759 33 135 9.0 10.0 0.00 0.00 0.00 82 1023.0
20181211183259 33 133 12.0 12.0 0.00 0.00 0.00 83 1023.0
20181211182800 33 144 9.0 12.0 0.00 0.00 0.00 83 1023.0
20181211182259 33 152 9.0 10.0 0.00 0.00 0.00 83 1023.0
20181211181759 33 148 11.0 13.0 0.00 0.00 0.00 83 1023.0
20181211181259 33 139 10.0 9.0 0.00 0.00 0.00 83 1022.9
20181211180759 33 131 10.0 9.0 0.00 0.00 0.00 83 1022.9
20181211180259 33 126 9.0 12.0 0.00 0.00 0.00 83 1022.8
20181211175759 33 131 10.0 10.0 0.00 0.00 0.00 83 1022.7
20181211175259 33 124 10.0 10.0 0.00 0.00 0.00 83 1022.8
20181211174759 32 117 7.0 8.0 0.00 0.00 0.00 83 1022.6
20181211174259 32 118 9.0 9.0 0.00 0.00 0.00 83 1022.6
20181211173759 33 173 6.0 6.0 0.00 0.00 0.00 83 1022.6
20181211173259 33 176 3.0 6.0 0.00 0.00 0.00 83 1022.5
20181211172759 33 152 6.0 6.0 0.00 0.00 0.00 83 1022.6
20181211172259 33 158 7.0 7.0 0.00 0.00 0.00 83 1022.3
20181211171759 33 158 9.0 8.0 0.00 0.00 0.00 83 1022.4
20181211171259 33 135 7.0 7.0 0.00 0.00 0.00 83 1022.5
20181211170800 33 135 7.0 7.0 0.00 0.00 0.00 83 1022.4
20181211170258 33 135 6.0 6.0 0.00 0.00 0.00 83 1022.4
20181211165758 33 135 6.0 6.0 0.00 0.00 0.00 83 1022.3
20181211165259 32 135 6.0 6.0 0.00 0.00 0.00 83 1022.4
20181211164759 33 145 5.0 5.0 0.00 0.00 0.00 83 1022.4
20181211164259 33 146 6.0 6.0 0.00 0.00 0.00 83 1022.4
20181211163759 33 146 5.0 5.0 0.00 0.00 0.00 83 1022.4
20181211163258 33 135 5.0 6.0 0.00 0.00 0.00 83 1022.3
20181211162759 33 135 6.0 7.0 0.00 0.00 0.00 83 1022.2
20181211162258 33 135 7.0 6.0 0.00 0.00 0.00 82 1022.2
20181211161758 33 135 5.0 5.0 0.00 0.00 0.00 82 1022.2
20181211161259 33 135 6.0 5.0 0.00 0.00 0.00 82 1022.1
20181211160759 33 135 6.0 5.0 0.00 0.00 0.00 82 1022.1
20181211160259 33 135 5.0 5.0 0.00 0.00 0.00 82 1022.0
20181211155759 33 148 5.0 5.0 0.00 0.00 0.00 81 1022.1
20181211155259 33 144 3.0 3.0 0.00 0.00 0.00 81 1022.0
20181211154759 33 135 2.0 2.0 0.00 0.00 0.00 81 1022.0
20181211154258 33 135 3.0 5.0 0.00 0.00 0.00 81 1022.0
20181211153758 33 125 5.0 5.0 0.00 0.00 0.00 81 1022.0
20181211153258 33 112 5.0 5.0 0.00 0.00 0.00 81 1022.0
20181211152759 33 120 5.0 5.0 0.00 0.00 0.00 81 1021.9
20181211152258 33 112 4.0 3.0 0.00 0.00 0.00 82 1021.8
20181211151759 33 135 5.0 5.0 0.00 0.00 0.00 82 1022.0
20181211151259 33 135 5.0 5.0 0.00 0.00 0.00 81 1021.9
20181211150759 34 116 5.0 6.0 0.00 0.00 0.00 81 1021.8
20181211150259 34 114 6.0 5.0 0.00 0.00 0.00 81 1021.8
20181211145759 34 112 5.0 6.0 0.00 0.00 0.00 81 1021.8
20181211145259 34 126 6.0 5.0 0.00 0.00 0.00 81 1021.8
20181211144759 34 112 5.0 3.0 0.00 0.00 0.00 80 1021.7
20181211144259 34 135 5.0 3.0 0.00 0.00 0.00 80 1021.7
20181211143758 34 135 3.0 3.0 0.00 0.00 0.00 80 1021.7
20181211143259 34 135 5.0 5.0 0.00 0.00 0.00 80 1021.6
20181211142802 34 135 5.0 5.0 0.00 0.00 0.00 80 1021.5
20181211142303 34 158 3.0 3.0 0.00 0.00 0.00 80 1021.5
20181211141801 34 141 6.0 6.0 0.00 0.00 0.00 80 1021.5
20181211141301 34 158 3.0 3.0 0.00 0.00 0.00 80 1021.4
20181211140802 34 131 5.0 6.0 0.00 0.00 0.00 80 1021.4
20181211140301 34 135 3.0 3.0 0.00 0.00 0.00 80 1021.3
20181211135758 34 143 5.0 3.0 0.00 0.00 0.00 80 1021.4
20181211135259 35 135 2.0 3.0 0.00 0.00 0.00 80 1021.3
20181211134759 35 124 3.0 3.0 0.00 0.00 0.00 80 1021.4
20181211134300 35 124 4.0 5.0 0.00 0.00 0.00 80 1021.4
20181211133808 35 112 3.0 3.0 0.00 0.00 0.00 80 1021.4
20181211133258 35 112 5.0 3.0 0.00 0.00 0.00 80 1021.4
20181211132759 35 112 3.0 2.0 0.00 0.00 0.00 80 1021.3
20181211132258 35 90 3.0 2.0 0.00 0.00 0.00 80 1021.2
20181211131758 35 90 2.0 2.0 0.00 0.00 0.00 79 1021.3
20181211131258 35 90 3.0 2.0 0.00 0.00 0.00 79 1021.3
20181211130758 35 135 1.0 2.0 0.00 0.00 0.00 79 1021.1
20181211130258 35 135 2.0 2.0 0.00 0.00 0.00 79 1021.1
20181211125759 36 135 3.0 2.0 0.00 0.00 0.00 80 1021.0
20181211125258 36 135 3.0 3.0 0.00 0.00 0.00 80 1019.0
20181211124758 36 158 2.0 2.0 0.00 0.00 0.00 80 1014.6
20181211124258 36 180 3.0 5.0 0.00 0.00 0.00 80 1015.0
20181211123758 36 178 5.0 6.0 0.00 0.00 0.00 80 1016.1
20181211123259 37 158 8.0 6.0 0.00 0.00 0.00 81 1020.8
20181211122305 37 158 9.0 9.0 0.00 0.00 0.00 81 1020.8
20181211121801 37 140 10.0 10.0 0.00 0.00 0.00 81 1020.8
20181211121301 37 158 9.0 10.0 0.00 0.00 0.00 81 1020.7
20181211120802 36 156 12.0 9.0 0.00 0.00 0.00 81 1020.7
20181211120302 36 157 9.0 9.0 0.00 0.00 0.00 81 1020.8
20181211115801 36 129 10.0 9.0 0.00 0.00 0.00 82 1020.7
20181211115301 36 135 8.0 8.0 0.00 0.00 0.00 82 1020.7
20181211114802 36 98 10.0 9.0 0.00 0.00 0.00 82 1020.6
20181211114302 36 129 9.0 9.0 0.00 0.00 0.00 82 1020.7
20181211113802 36 132 9.0 8.0 0.00 0.00 0.00 82 1020.7
20181211113303 36 135 9.0 8.0 0.00 0.00 0.00 82 1020.6
20181211112801 35 112 7.0 8.0 0.00 0.00 0.00 82 1020.6
20181211112301 35 132 7.0 8.0 0.00 0.00 0.00 82 1020.7
20181211111802 35 135 6.0 6.0 0.00 0.00 0.00 82 1020.7
20181211111301 35 114 8.0 8.0 0.00 0.00 0.00 83 1020.7
20181211110801 35 113 6.0 7.0 0.00 0.00 0.00 83 1020.6
20181211110302 35 135 6.0 7.0 0.00 0.00 0.00 83 1020.6
20181211105801 35 130 6.0 6.0 0.00 0.00 0.00 83 1020.6
20181211105305 35 116 6.0 6.0 0.00 0.00 0.00 83 1020.7
20181211104808 35 130 6.0 6.0 0.00 0.00 0.00 83 1020.6
20181211104301 35 132 5.0 5.0 0.00 0.00 0.00 83 1020.6
20181211103802 35 109 3.0 3.0 0.00 0.00 0.00 83 1020.6
20181211103302 34 112 6.0 6.0 0.00 0.00 0.00 83 1020.6
20181211102802 34 92 3.0 6.0 0.00 0.00 0.00 83 1020.6
20181211102302 34 135 9.0 7.0 0.00 0.00 0.00 83 1020.6
20181211101801 34 137 6.0 5.0 0.00 0.00 0.00 81 1020.6
20181211101302 34 113 4.0 5.0 0.00 0.00 0.00 81 1020.5
20181211100801 33 134 3.0 5.0 0.00 0.00 0.00 81 1020.5
20181211100301 33 137 5.0 5.0 0.00 0.00 0.00 81 1020.6
20181211095802 33 135 4.0 3.0 0.00 0.00 0.00 81 1020.6
20181211095305 33 158 5.0 5.0 0.00 0.00 0.00 81 1020.3
20181211094801 33 154 2.0 2.0 0.00 0.00 0.00 82 1020.3
20181211094301 33 135 3.0 2.0 0.00 0.00 0.00 82 1020.4
20181211093802 33 90 3.0 2.0 0.00 0.00 0.00 82 1020.3
20181211093304 33 112 3.0 5.0 0.00 0.00 0.00 81 1020.3
20181211092802 33 132 4.0 5.0 0.00 0.00 0.00 82 1020.2
20181211092305 34 135 3.0 3.0 0.00 0.00 0.00 82 1020.3
20181211091801 34 135 3.0 2.0 0.00 0.01 0.00 82 1020.3
20181211091301 34 90 2.0 2.0 0.00 0.01 0.00 81 1020.3
20181211090802 34 90 3.0 3.0 0.00 0.01 0.00 81 1020.2
20181211090302 34 68 5.0 3.0 0.00 0.01 0.00 81 1020.3
20181211085801 34 22 6.0 5.0 0.00 0.01 0.00 81 1020.3
20181211085301 34 22 3.0 5.0 0.00 0.01 0.00 81 1020.1
20181211084802 33 22 4.0 5.0 0.00 0.01 0.00 81 1020.0
20181211084301 33 356 2.0 5.0 0.00 0.01 0.00 81 1020.0
20181211083801 33 270 5.0 3.0 0.00 0.01 0.00 81 1020.0
20181211083301 33 292 3.0 2.0 0.00 0.01 0.00 81 1019.8
20181211082802 33 45 3.0 2.0 0.00 0.01 0.00 81 1019.8
20181211082302 33 338 1.0 1.0 0.00 0.01 0.00 81 1019.9
20181211081802 34 270 2.0 2.0 0.00 0.01 0.00 81 1019.8
20181211081302 34 292 3.0 3.0 0.00 0.01 0.00 81 1019.7
20181211080802 34 295 4.0 3.0 0.00 0.01 0.00 81 1019.7
20181211080302 34 335 4.0 5.0 0.00 0.02 0.00 81 1019.6
20181211075801 34 300 4.0 6.0 0.00 0.02 0.00 82 1019.6
20181211075302 34 281 3.0 6.0 0.00 0.02 0.00 82 1019.6
20181211074801 34 260 4.0 5.0 0.00 0.02 0.00 82 1019.5
20181211074302 35 328 7.0 6.0 0.00 0.02 0.00 82 1019.4
20181211073802 35 16 8.0 9.0 0.00 0.02 0.00 82 1019.4
20181211073301 35 338 5.0 6.0 0.00 0.02 0.00 82 1019.3
20181211072801 35 347 7.0 9.0 0.00 0.02 0.00 82 1019.2
20181211072302 35 22 10.0 10.0 0.00 0.02 0.00 82 1019.2
20181211071801 35 343 6.0 10.0 0.00 0.02 0.00 82 1019.2
20181211071301 34 327 10.0 9.0 0.00 0.02 0.00 82 1019.1
20181211070801 34 1 5.0 6.0 0.00 0.02 0.00 82 1019.3
20181211070301 34 294 2.0 7.0 0.00 0.03 0.00 82 1019.2
20181211065801 34 352 5.0 7.0 0.00 0.03 0.00 82 1019.2
20181211065301 35 327 5.0 7.0 0.00 0.03 0.00 81 1019.0
20181211064802 35 338 7.0 7.0 0.00 0.03 0.00 81 1019.0
20181211064301 35 336 5.0 5.0 0.00 0.03 0.00 81 1019.1
20181211063801 35 8 7.0 8.0 0.00 0.03 0.00 81 1019.1
20181211063302 35 352 9.0 8.0 0.00 0.03 0.00 81 1019.1
20181211062802 35 0 7.0 6.0 0.00 0.03 0.00 81 1019.2
20181211062301 35 0 5.0 6.0 0.00 0.03 0.00 81 1019.2
20181211061801 35 357 5.0 5.0 0.00 0.03 0.00 81 1019.1
20181211061302 35 0 6.0 5.0 0.00 0.03 0.00 81 1019.1
20181211060801 35 340 5.0 5.0 0.00 0.03 0.00 81 1019.1
20181211060301 35 0 6.0 7.0 0.00 0.03 0.00 81 1019.1
20181211055801 35 13 7.0 8.0 0.00 0.03 0.00 81 1019.2
20181211055301 35 352 3.0 5.0 0.00 0.03 0.00 81 1019.1
20181211054801 35 315 5.0 5.0 0.00 0.03 0.00 80 1019.0
20181211054301 35 338 3.0 6.0 0.00 0.03 0.00 80 1018.9
20181211053802 35 338 5.0 6.0 0.00 0.03 0.00 80 1018.9
20181211053301 35 0 6.0 6.0 0.00 0.03 0.00 80 1018.8
20181211052801 35 15 6.0 7.0 0.00 0.03 0.00 80 1018.8
20181211052301 35 0 9.0 8.0 0.00 0.03 0.00 80 1018.8
20181211051801 35 37 7.0 8.0 0.00 0.03 0.00 80 1018.8
20181211051302 35 4 5.0 7.0 0.00 0.03 0.00 80 1018.7
20181211050802 35 0 6.0 7.0 0.00 0.03 0.00 80 1018.5
20181211050301 35 358 8.0 8.0 0.00 0.03 0.00 80 1018.4
20181211045802 35 350 10.0 8.0 0.00 0.03 0.00 80 1018.4
20181211045301 35 13 8.0 7.0 0.00 0.03 0.00 80 1018.3
20181211044802 35 7 6.0 7.0 0.00 0.03 0.00 80 1018.4
20181211044302 35 348 7.0 7.0 0.00 0.03 0.00 80 1018.4
20181211043802 35 0 7.0 9.0 0.00 0.03 0.00 80 1018.3
20181211043302 35 0 9.0 9.0 0.00 0.03 0.00 80 1018.2
20181211042801 35 2 8.0 8.0 0.00 0.03 0.00 80 1018.3
20181211042301 35 2 3.0 6.0 0.00 0.03 0.00 80 1018.3
20181211041801 35 0 5.0 6.0 0.00 0.03 0.00 80 1018.4
20181211041301 35 344 5.0 5.0 0.00 0.03 0.00 80 1018.3
20181211040801 35 42 5.0 6.0 0.00 0.03 0.00 80 1018.4
20181211040302 35 22 3.0 3.0 0.00 0.03 0.00 80 1018.3
20181211035802 35 103 1.0 3.0 0.00 0.03 0.00 80 1018.3
20181211035301 35 105 3.0 2.0 0.00 0.03 0.00 80 1018.2
20181211034801 35 90 2.0 2.0 0.00 0.03 0.00 80 1018.4
20181211034301 36 90 5.0 3.0 0.00 0.03 0.00 80 1018.3
20181211033802 36 84 5.0 7.0 0.00 0.04 0.00 80 1018.1
20181211033301 36 40 6.0 7.0 0.00 0.04 0.00 80 1018.1
20181211032801 36 45 7.0 9.0 0.00 0.04 0.00 80 1018.1
20181211032302 37 18 3.0 9.0 0.00 0.04 0.00 80 1018.0
20181211031801 37 35 6.0 7.0 0.00 0.04 0.00 80 1018.0
20181211031302 36 354 9.0 8.0 0.00 0.04 0.00 80 1018.1
20181211030801 36 43 10.0 9.0 0.00 0.04 0.00 80 1018.1
20181211030301 36 338 5.0 7.0 0.00 0.04 0.00 80 1018.1
20181211025801 36 17 7.0 8.0 0.00 0.04 0.00 80 1018.1
20181211025301 37 3 9.0 10.0 0.00 0.05 0.00 80 1018.1
20181211024801 36 350 12.0 12.0 0.00 0.05 0.00 80 1018.1
20181211024301 36 5 9.0 12.0 0.00 0.05 0.00 80 1018.0
20181211023801 36 41 8.0 13.0 0.00 0.05 0.00 80 1018.0
20181211023302 36 17 12.0 13.0 0.00 0.05 0.00 80 1018.0
20181211022801 36 22 12.0 16.0 0.00 0.05 0.00 80 1017.9
20181211022301 36 85 7.0 10.0 0.00 0.05 0.00 80 1017.9
20181211021801 36 25 6.0 7.0 0.00 0.05 0.00 80 1018.0
20181211021301 36 43 9.0 12.0 0.00 0.05 0.00 80 1018.0
20181211020801 36 45 10.0 9.0 0.00 0.06 0.00 80 1018.0
20181211020302 36 24 6.0 8.0 0.00 0.06 0.00 80 1017.9
20181211015801 37 103 9.0 13.0 0.00 0.06 0.00 80 1017.9
20181211015301 37 64 12.0 13.0 0.00 0.06 0.00 80 1017.8
20181211014801 37 0 11.0 12.0 0.00 0.06 0.00 80 1017.7
20181211014301 37 45 7.0 8.0 0.00 0.06 0.00 80 1017.8
20181211013801 37 45 8.0 8.0 0.00 0.07 0.00 80 1017.8
20181211013301 37 24 6.0 6.0 0.00 0.07 0.00 79 1017.7
20181211012801 37 42 5.0 6.0 0.00 0.07 0.00 79 1017.7
20181211012302 37 20 4.0 5.0 0.00 0.07 0.00 79 1017.8
20181211011802 37 3 7.0 8.0 0.00 0.07 0.00 79 1017.8